Wind_Speed
12 14 16 18 18 18 19 19 19 20 20 17 14 12 13 14 16 15 14 14 14 11 9 10 13 14 16 17 17 15 15 16 16 15 16 18 24 28 27 25 23 22 22 21 22 25 25 23 21 21 19 14 13 13 10 11 15 16 15 18 21 21 25 26 27 29 28 24 20 18 15 14 14 12 9 10 11 11 12 13 15 16 16 15 15 13
14 17 17 18 17 16 17 17 19 21 22 19 14 14 14 12 12 13 12 11 10 9 8 12 15 17 17 18 19 19 19 21 20 16 16 18 21 25 28 26 23 23 24 24 24 25 26 23 21 22 20 16 16 14 10 11 15 14 13 15 17 20 24 25 27 30 27 23 19 17 15 13 12 11 10 12 11 11 13 14 15 14 15 15 14 12
16 19 18 18 17 16 16 16 17 19 22 19 13 16 18 13 11 12 13 12 8 5 7 10 14 18 18 18 20 19 20 22 22 19 16 18 19 22 27 28 25 25 25 26 26 25 25 24 23 23 22 19 18 15 12 13 15 13 12 13 14 17 21 23 28 31 27 23 20 18 15 13 13 13 13 14 13 12 13 14 15 14 13 13 12 11
16 19 19 18 17 16 17 16 14 14 16 15 12 16 19 15 13 14 14 16 15 10 7 10 17 19 18 18 18 17 18 20 22 22 19 19 19 20 26 29 27 25 24 25 25 25 25 26 26 25 24 22 19 17 14 13 13 12 11 12 12 17 21 26 31 32 28 25 22 18 16 14 14 14 13 13 12 13 14 15 16 14 12 11 10 11
18 19 16 16 17 18 17 15 14 13 13 14 15 18 19 17 17 18 15 15 17 14 9 11 16 19 20 21 22 21 21 22 22 23 22 22 21 19 22 26 27 25 23 25 26 24 23 25 27 28 28 26 22 19 15 11 10 9 10 10 10 15 22 26 30 32 29 25 21 18 15 14 14 13 12 12 12 13 15 16 15 13 12 11 11 12
21 18 11 12 14 16 16 14 15 16 15 16 17 19 20 19 18 19 17 16 18 17 14 14 13 14 19 22 24 23 24 26 25 24 23 22 22 21 20 23 26 26 22 23 26 25 21 21 26 28 26 24 23 18 13 11 11 10 10 8 7 12 18 22 24 28 29 24 19 16 13 13 13 12 12 12 12 13 15 16 15 14 13 12 13 12
21 18 12 12 11 10 13 14 15 16 17 17 16 16 19 20 20 20 19 18 17 16 15 16 13 12 15 16 17 18 19 22 24 24 22 20 20 20 20 20 22 25 26 26 27 27 23 21 23 24 23 23 21 14 12 14 14 12 10 8 7 9 15 19 19 24 28 23 18 14 11 12 13 12 12 12 12 13 16 16 15 15 13 13 13 12
18 18 16 16 14 13 14 16 15 16 17 16 14 14 15 19 21 20 19 19 19 17 18 18 16 17 18 17 17 18 18 17 18 19 16 15 18 19 20 21 19 18 24 30 30 28 25 24 22 22 23 22 17 13 16 17 16 14 12 10 8 8 13 18 18 23 27 21 17 13 10 12 14 13 13 14 14 15 17 17 16 15 15 14 13 12
16 18 16 14 13 15 17 17 15 16 18 17 15 14 13 14 17 16 15 19 19 18 20 20 18 17 17 18 17 17 19 15 14 17 14 12 15 15 17 22 22 15 10 18 25 27 27 27 24 23 24 22 16 17 19 19 18 17 15 13 11 11 15 21 22 23 24 19 17 15 12 13 14 14 16 16 17 18 18 18 17 16 16 14 13 13
15 16 16 14 14 16 15 15 15 16 17 16 15 15 12 9 12 13 13 17 17 15 18 19 17 14 13 16 15 13 16 14 8 15 17 15 17 16 16 18 20 19 11 11 17 24 25 24 22 22 23 22 19 19 19 20 21 19 17 16 15 15 17 21 21 18 16 16 18 17 14 13 14 16 18 19 20 20 19 19 18 17 16 15 14 13
14 11 14 17 17 16 15 14 14 15 15 13 12 13 11 10 13 14 15 16 13 12 18 20 19 17 11 14 15 9 7 9 7 12 16 17 18 20 23 22 19 22 21 17 18 20 19 19 21 23 23 23 22 21 20 22 24 21 19 19 18 19 19 20 19 14 11 14 17 17 16 15 15 17 19 19 20 20 20 20 19 18 17 15 14 13
18 13 14 16 15 13 14 15 15 14 13 13 12 10 10 11 13 15 16 16 11 10 17 20 20 20 14 13 11 3 3 4 6 7 10 14 16 18 22 22 21 25 25 22 21 21 20 22 25 26 25 25 26 26 23 24 26 24 22 21 22 23 21 18 16 12 11 14 17 16 15 15 17 18 19 19 19 20 20 20 19 18 16 15 13 13
20 20 18 16 16 16 15 16 16 17 16 15 15 13 11 10 10 11 10 10 10 11 16 18 17 16 11 5 3 5 5 9 11 10 12 14 16 17 19 19 22 26 27 26 25 22 23 27 30 29 28 28 30 30 27 26 28 27 27 26 24 22 19 16 14 15 16 16 18 18 16 16 18 20 20 21 22 22 21 20 19 18 16 15 13 13
18 21 21 16 15 17 18 18 17 17 18 17 17 16 13 8 6 7 6 6 9 11 14 17 15 14 9 5 8 4 3 8 12 14 14 15 17 20 20 20 22 24 25 27 26 26 27 29 32 32 30 31 33 31 29 28 28 30 30 29 26 22 18 13 13 16 18 16 15 18 20 19 20 21 21 22 24 24 23 21 20 19 17 15 14 13
16 16 19 19 16 16 19 21 18 15 15 17 17 17 17 13 9 6 5 6 7 7 11 12 9 11 8 5 4 3 5 7 12 14 15 14 16 18 16 16 19 19 21 24 24 25 26 26 28 31 32 34 34 30 30 30 30 30 30 30 28 23 18 12 11 13 15 17 14 14 19 21 22 22 21 22 24 25 24 22 21 19 17 16 14 12
17 16 17 19 17 16 17 19 19 17 16 17 17 19 20 18 14 10 8 9 8 6 8 9 7 6 0 6 4 5 6 8 10 13 15 13 12 14 13 12 13 12 15 19 18 17 18 19 21 23 26 30 29 27 30 32 30 28 27 28 28 24 19 14 11 11 15 16 13 12 16 18 20 23 23 24 26 25 23 22 21 20 18 16 14 12
15 16 16 17 17 18 16 16 18 19 16 13 15 20 20 17 15 13 12 13 11 7 6 9 9 4 3 4 2 2 3 5 6 9 12 11 11 12 11 9 9 8 10 13 13 10 9 12 14 14 16 17 19 23 29 28 21 19 22 24 24 23 19 14 11 12 15 14 13 14 14 16 18 22 24 26 29 27 23 23 23 21 18 16 14 12
13 13 14 15 17 18 18 15 16 20 18 12 13 16 16 16 16 14 10 8 9 7 6 11 12 6 5 1 1 1 2 3 5 6 7 8 8 9 9 8 7 7 8 10 9 7 7 11 13 14 15 15 18 23 23 16 7 10 19 22 20 19 16 14 13 14 14 11 10 15 14 15 20 23 26 28 29 28 26 25 24 21 18 16 14 12
11 12 13 15 16 16 18 17 17 19 20 18 15 12 10 12 13 13 10 6 6 6 4 11 11 5 9 4 1 3 4 3 4 4 4 6 5 6 7 7 6 5 5 6 7 5 6 9 12 14 16 16 18 19 15 9 7 11 17 19 19 19 18 17 15 15 15 11 8 12 14 15 24 26 28 30 29 27 27 26 24 21 18 16 14 12
10 11 11 13 15 14 16 18 18 19 20 20 19 15 13 12 10 9 10 9 9 6 4 9 8 4 9 6 3 4 4 4 4 3 4 4 5 5 5 4 4 3 3 4 5 6 6 7 8 9 10 11 12 11 11 12 13 15 17 19 20 21 21 19 16 16 16 12 11 11 11 15 24 28 31 32 29 27 27 26 24 21 18 16 14 13
14 13 11 11 13 15 16 18 18 17 17 20 21 19 17 14 12 10 10 11 10 5 3 6 3 3 5 4 1 2 3 3 5 4 3 3 4 5 5 5 5 4 4 4 4 6 7 8 9 9 8 9 9 7 7 11 15 17 19 20 21 21 21 20 17 16 16 14 15 17 14 15 22 28 32 32 29 29 29 27 24 21 19 17 16 14
12 11 11 12 13 16 17 15 16 15 14 16 19 18 18 16 15 11 9 12 13 9 7 6 1 4 4 1 2 1 2 2 3 2 2 3 4 6 8 8 7 5 5 4 4 5 7 8 10 10 9 8 8 8 8 11 14 16 19 19 21 22 20 19 17 17 17 17 19 21 20 18 21 27 32 33 32 32 30 28 25 22 20 19 17 14
10 7 8 11 13 15 13 9 12 15 13 14 17 17 17 19 19 16 10 9 11 10 8 5 2 5 5 5 4 2 1 2 3 4 6 9 9 9 9 6 5 3 2 2 3 3 5 7 10 11 9 8 8 9 10 11 12 13 15 16 17 18 17 17 17 18 19 20 22 23 24 22 21 25 30 33 34 34 31 29 26 23 22 20 17 15
11 9 10 12 11 13 13 10 11 12 11 11 13 13 11 11 15 16 11 6 6 7 3 2 1 4 4 3 3 2 2 4 5 7 9 12 11 10 7 3 4 4 3 2 2 3 4 5 8 10 11 11 10 9 10 12 13 12 10 11 13 13 14 15 18 18 20 22 23 25 26 25 24 26 30 32 34 34 32 30 27 25 22 20 18 16
10 9 10 11 9 9 11 12 10 12 13 9 7 10 12 11 10 13 9 3 3 7 5 2 1 3 4 2 2 2 5 9 9 10 11 12 10 7 5 3 4 4 5 5 5 6 7 7 8 9 10 12 12 11 12 13 13 12 10 11 13 16 17 18 21 21 22 23 25 27 29 28 27 28 31 33 35 35 33 30 29 26 23 21 19 17
9 7 7 8 7 4 5 7 5 6 12 11 10 11 11 10 7 7 10 6 5 7 5 5 4 6 5 2 2 5 9 9 9 10 11 10 7 4 4 4 5 5 6 6 7 7 9 10 11 10 10 10 11 12 14 13 12 11 12 13 15 18 20 23 24 24 24 25 26 29 32 30 29 31 34 36 36 35 33 31 30 27 24 21 19 18
8 6 6 8 8 5 5 7 4 5 9 8 10 12 11 11 6 2 4 6 5 6 2 6 7 8 6 3 5 10 12 9 8 8 8 7 6 6 6 6 7 7 6 7 8 8 9 10 11 11 12 12 12 12 12 13 13 13 14 17 18 20 22 25 27 27 27 28 27 29 30 30 30 32 36 37 36 35 34 32 30 28 24 22 20 18
8 6 8 9 8 6 7 8 5 5 8 7 7 11 10 10 8 2 4 5 1 3 1 8 9 9 9 7 10 12 11 10 10 9 6 6 6 7 8 8 8 7 6 7 8 9 10 10 11 11 12 13 13 12 12 11 13 14 15 17 19 21 23 27 29 30 30 30 30 29 29 30 31 34 37 38 36 36 35 32 30 29 26 23 20 19
6 6 6 5 5 4 6 11 9 5 5 6 4 7 7 8 7 5 5 5 3 1 5 11 12 12 13 13 13 12 10 10 11 10 8 6 5 7 8 8 7 6 6 6 7 8 9 11 12 12 13 13 13 12 12 11 12 14 15 16 18 19 22 28 32 31 29 30 30 29 29 31 33 35 38 39 38 37 36 33 31 29 27 23 22 20
5 5 4 2 5 5 6 12 12 8 7 4 3 8 9 7 6 4 2 2 4 6 8 13 14 13 14 13 11 10 9 10 11 11 10 7 6 7 8 6 5 5 5 6 7 8 10 11 12 13 14 14 13 13 13 12 12 13 14 15 16 17 20 26 29 29 28 28 29 28 30 35 37 37 39 40 39 38 37 33 31 29 27 25 23 22
4 5 4 3 4 5 5 6 7 7 6 4 8 9 8 8 6 2 1 3 7 8 8 10 11 10 8 8 8 9 9 11 9 7 7 7 6 8 9 6 5 4 5 6 7 9 10 11 12 13 13 13 12 11 11 11 12 14 14 14 13 14 19 24 25 24 25 27 28 30 32 35 35 36 38 39 40 41 40 35 31 31 30 26 24 23
3 4 4 4 4 4 3 3 5 5 4 6 6 4 6 8 7 3 3 5 7 8 8 9 8 6 7 9 8 7 8 9 6 2 3 4 4 6 7 5 4 4 5 8 10 11 11 11 11 11 11 10 9 8 8 9 10 12 13 13 12 14 19 23 23 22 23 25 28 29 29 29 30 34 38 39 40 42 40 34 30 30 30 28 26 25
2 3 4 4 4 3 2 3 4 4 3 2 6 8 7 8 6 3 4 5 5 7 8 9 9 7 10 10 7 7 7 6 3 1 1 2 3 4 4 3 4 5 8 11 11 10 10 10 9 10 9 7 6 6 7 7 8 10 12 12 11 13 17 20 22 22 22 24 26 26 26 26 28 33 36 37 39 39 35 31 30 29 28 28 27 25
3 3 3 4 4 3 1 2 2 3 1 2 4 5 6 6 2 0 2 5 7 7 6 7 8 8 9 8 6 7 6 5 3 3 3 3 4 4 3 4 6 7 8 8 8 7 8 9 9 9 8 5 5 5 7 7 8 9 10 10 9 12 15 17 20 22 23 24 27 26 25 26 28 31 33 33 35 35 32 32 31 28 27 27 26 24
4 3 3 4 5 2 1 0 2 1 2 4 3 3 5 6 2 2 3 5 6 7 7 9 9 7 8 9 8 6 4 4 4 5 4 4 5 5 5 5 6 6 5 5 7 8 8 8 7 7 4 2 3 4 5 5 7 8 8 6 6 8 13 19 23 26 24 25 28 27 26 27 28 30 31 31 32 32 32 31 29 27 27 27 26 26
5 5 4 5 6 4 2 1 2 3 5 5 2 2 4 5 4 2 2 4 3 5 7 9 10 11 10 9 8 7 6 5 6 6 6 5 5 7 7 7 6 6 6 6 8 8 7 6 5 3 2 2 3 4 4 5 7 9 8 5 4 5 11 17 25 31 29 26 26 27 27 27 27 27 28 29 30 31 32 32 30 29 30 30 28 27
5 6 5 5 6 4 1 5 7 7 5 3 1 1 2 2 5 5 3 6 7 2 3 5 7 8 8 7 7 7 7 7 6 6 5 5 6 7 7 7 7 7 6 6 6 6 5 5 4 2 2 3 4 5 6 6 6 8 8 6 6 10 12 11 15 25 30 26 25 27 28 27 28 28 28 28 29 30 32 33 31 30 31 31 30 28
7 6 5 4 4 4 3 7 7 5 3 2 1 1 3 3 0 4 5 7 10 6 2 3 4 5 6 6 6 7 8 7 6 4 4 5 6 6 6 7 7 6 5 5 6 6 4 4 3 3 4 4 5 6 6 4 4 6 6 6 7 8 10 9 9 16 22 22 24 27 28 28 29 30 30 30 30 31 32 31 30 30 31 32 30 28
8 6 4 3 3 4 3 2 2 3 3 3 3 3 3 2 1 3 5 6 10 7 4 4 3 4 6 6 6 7 8 7 6 6 5 6 6 6 6 6 6 6 6 7 8 8 6 5 4 5 7 8 8 8 8 7 6 5 5 6 7 6 6 8 9 12 15 17 21 25 26 27 29 30 30 30 31 31 31 30 29 30 29 26 24 21
8 6 5 6 4 3 2 3 4 4 5 5 5 6 4 2 2 3 2 4 7 5 4 3 2 3 5 5 6 8 8 7 7 8 8 8 9 9 9 9 9 8 8 8 10 11 10 7 7 8 9 10 10 10 10 9 8 6 5 6 6 4 2 3 6 10 13 15 18 20 21 22 24 26 27 27 26 26 25 24 23 22 20 18 16 16
5 5 4 4 2 1 4 7 7 6 6 6 6 6 5 4 3 3 2 3 4 5 5 4 3 2 3 3 5 7 7 8 8 8 8 8 9 10 11 12 12 11 11 10 11 12 12 10 10 10 10 11 11 11 10 10 10 8 6 6 5 4 6 6 5 7 10 13 15 15 15 17 18 19 20 18 17 17 16 16 16 15 15 15 15 17
4 5 3 3 4 3 7 11 10 7 6 5 5 6 4 3 4 4 3 3 4 5 6 7 6 5 4 3 3 4 6 7 7 8 9 9 9 10 11 12 12 12 13 13 13 14 14 14 12 12 11 11 11 12 12 12 11 9 7 8 7 7 8 9 9 9 10 10 11 12 14 15 16 17 18 19 19 18 17 17 17 17 16 16 17 17
7 5 3 4 7 7 9 10 6 5 6 5 5 6 5 5 6 5 4 4 5 5 7 8 8 7 6 6 5 3 3 4 5 6 7 8 9 10 11 11 11 12 12 14 15 16 16 15 14 13 11 10 11 11 12 13 12 10 9 9 9 9 8 8 10 11 13 14 15 16 16 16 16 18 21 22 21 20 18 17 16 16 16 17 17 16
7 4 3 5 8 8 9 9 8 9 11 9 7 8 8 8 8 7 6 6 6 6 7 8 8 7 7 7 7 7 6 4 3 3 5 7 8 8 8 8 9 10 11 12 13 15 15 14 13 12 10 10 10 10 10 11 10 9 8 9 9 9 9 9 11 12 14 16 18 18 18 18 18 19 22 22 20 18 17 16 16 16 16 16 16 15
9 7 7 12 16 17 17 17 16 15 14 12 11 12 12 11 10 9 8 7 6 7 7 7 7 7 8 9 10 10 9 7 4 3 4 6 7 7 7 7 7 7 9 10 11 11 11 10 10 9 8 8 9 9 8 8 8 7 6 6 7 7 8 9 10 11 13 14 15 17 18 18 18 19 19 18 16 15 15 16 16 16 14 13 12 11
17 16 19 23 25 25 23 19 16 14 13 12 12 12 12 11 11 10 9 7 7 8 8 8 8 8 9 10 11 11 9 8 6 4 4 5 6 6 6 6 6 6 7 8 8 9 8 8 7 7 7 7 7 7 6 5 5 5 4 4 4 4 5 6 6 7 7 8 9 10 11 14 16 17 16 16 15 15 14 13 12 10 9 8 8 8
14 14 18 20 19 19 20 17 14 13 12 10 10 11 11 11 10 9 8 8 8 8 8 8 9 9 9 9 9 8 8 7 6 6 5 5 6 6 6 5 6 6 6 6 7 7 8 7 6 6 6 6 5 5 5 4 3 3 3 4 4 4 4 4 4 4 4 4 4 3 3 5 7 10 11 11 11 11 11 9 7 6 7 8 9 9
9 7 10 15 18 19 19 15 12 12 12 9 9 9 8 8 8 7 7 7 7 7 8 8 8 9 9 9 8 7 7 6 5 4 3 3 3 3 4 4 3 3 3 3 4 4 4 5 5 5 5 4 3 3 3 3 2 2 3 3 4 4 4 4 4 4 3 3 3 3 3 3 3 3 4 4 5 5 6 7 7 8 9 10 11 11
7 8 12 16 19 19 16 12 10 12 13 11 10 9 8 7 6 5 5 5 5 5 5 5 6 6 7 7 7 7 6 5 4 3 3 2 1 0 0 1 1 2 2 2 2 2 3 3 3 4 4 4 4 3 2 2 1 0 1 1 2 3 3 3 4 4 4 4 4 4 4 4 4 4 4 4 5 5 6 8 9 10 11 11 11 12
10 13 15 16 17 16 14 10 7 8 11 11 10 10 9 9 8 7 7 6 5 4 3 3 3 3 3 3 4 4 4 4 4 4 3 3 2 2 1 1 2 2 3 3 3 4 4 4 4 4 4 4 4 4 4 3 3 3 3 3 4 4 4 4 5 5 4 4 4 4 4 4 4 5 5 5 5 6 6 7 7 8 9 9 10 10
13 13 13 13 15 14 12 8 5 6 11 12 10 10 10 9 9 9 9 9 8 8 7 7 5 3 3 4 4 4 5 4 5 5 6 6 6 6 5 5 4 4 5 5 5 5 5 5 5 5 5 5 5 5 5 5 5 5 5 6 6 7 7 7 8 8 7 6 6 6 6 6 6 6 6 6 6 6 7 7 7 7 8 9 10 11
Wind_Direction
205 215 216 219 222 220 222 224 230 237 241 254 275 277 264 253 241 232 219 204 206 217 227 248 257 253 254 258 255 252 250 247 240 230 228 236 248 257 257 255 254 253 257 259 254 251 247 240 237 240 243 233 229 239 254 282 285 277 270 260 249 235 227 218 210 214 213 213 219 221 223 228 234 240 233 222 218 215 209 206 211 199 184 189 193 194
208 221 224 223 224 225 228 227 233 242 248 260 273 270 262 258 251 238 230 219 196 193 229 254 264 262 256 254 255 255 254 253 250 241 231 231 242 257 262 261 261 258 254 256 258 250 244 244 238 236 241 236 232 235 244 274 276 265 257 251 242 233 229 217 205 209 211 211 222 227 223 229 235 235 230 228 225 219 212 204 208 200 183 189 194 195
212 226 228 225 227 228 232 230 231 242 250 256 257 252 253 255 255 248 242 243 234 225 248 261 268 266 259 255 252 251 250 249 251 250 241 233 233 245 260 265 263 260 254 252 257 255 247 244 238 236 240 236 229 229 239 262 263 250 245 243 230 225 226 215 204 205 205 209 225 230 225 229 233 229 224 224 222 217 207 197 202 201 187 187 191 197
213 229 227 220 227 228 231 231 228 241 248 247 242 240 246 249 254 256 247 244 251 261 270 279 281 271 263 263 256 250 250 248 250 252 247 240 234 237 254 265 264 260 259 255 259 259 248 242 243 243 238 231 226 229 236 249 252 245 244 241 224 215 216 211 206 204 203 209 221 227 226 229 230 225 221 224 222 211 199 192 194 197 193 190 191 202
225 239 228 210 223 226 227 226 224 238 247 243 241 240 244 244 247 255 255 253 255 257 256 263 272 269 262 259 257 256 254 250 248 250 249 243 241 239 245 258 263 262 258 257 264 264 251 247 249 242 232 225 221 226 233 241 246 245 242 240 226 214 214 214 209 205 205 211 219 229 231 229 226 222 224 227 218 201 194 191 188 189 194 196 195 201
234 247 234 212 225 220 217 224 223 230 243 246 243 239 243 247 251 256 263 276 266 252 247 246 255 263 257 252 254 255 251 248 244 240 245 244 240 240 239 246 256 263 261 260 268 269 257 251 248 243 241 239 231 225 226 236 240 239 235 232 224 214 214 216 215 213 212 214 223 235 236 233 229 224 226 225 207 191 192 193 187 186 194 196 196 196
233 243 234 222 227 209 212 227 226 226 234 244 244 237 237 242 250 256 264 281 273 258 262 263 269 280 270 260 261 262 257 251 240 229 234 243 241 239 240 241 244 254 264 265 268 270 261 251 249 248 251 258 258 239 223 231 233 233 235 229 220 217 217 218 217 215 215 217 225 235 230 228 231 225 217 211 198 189 193 194 188 187 192 194 195 195
229 237 228 221 226 223 226 231 227 223 228 239 241 235 237 237 241 246 251 263 267 267 270 265 267 274 273 270 272 278 279 266 246 237 236 234 238 240 233 226 224 239 262 264 263 267 259 248 250 251 251 263 267 235 225 234 233 234 240 234 224 222 225 222 213 214 220 220 222 227 225 223 226 220 206 196 193 193 194 194 189 189 192 192 194 195
226 235 220 206 220 230 231 232 229 222 227 238 238 242 256 248 244 250 252 254 257 261 263 259 257 260 262 263 266 273 277 274 252 246 246 214 212 226 216 208 209 212 257 274 263 255 250 250 256 257 258 267 254 223 227 239 237 238 241 238 232 225 228 226 218 220 227 224 222 225 225 224 221 211 200 193 193 195 194 193 190 189 191 191 194 195
221 230 225 217 226 235 234 232 231 224 226 238 244 257 269 247 240 257 261 258 256 253 254 254 254 261 269 267 267 265 269 282 257 230 239 227 216 223 220 214 216 214 230 280 258 237 238 248 256 258 260 261 244 223 227 238 237 238 241 243 236 228 232 235 233 234 235 231 230 232 231 226 216 206 199 194 195 195 192 192 191 189 190 191 195 196
229 223 226 228 228 233 236 232 229 227 228 235 243 256 260 240 238 252 256 257 257 253 253 254 252 255 266 273 272 268 261 276 259 227 236 243 242 242 237 234 236 234 242 267 267 253 256 261 259 261 259 252 238 224 226 233 234 235 240 245 241 235 236 242 248 255 253 238 230 230 232 225 213 204 198 195 198 197 193 192 192 190 191 194 196 198
239 229 223 228 228 229 234 235 229 224 225 230 234 237 244 240 232 238 242 239 241 252 255 257 255 249 254 269 265 222 147 218 245 251 248 248 253 252 243 240 244 245 247 257 268 272 274 270 265 260 257 250 236 227 227 227 227 230 234 238 239 237 236 241 252 272 275 246 224 220 221 214 207 204 200 197 199 199 195 191 190 190 192 195 198 202
232 231 223 221 230 232 230 233 229 222 220 223 228 225 232 241 230 228 232 229 235 249 253 257 259 253 251 255 190 141 169 222 244 263 261 254 253 252 253 252 251 251 249 247 252 258 259 262 263 256 253 250 237 229 228 224 222 226 228 230 234 236 242 253 270 293 295 264 230 215 207 201 201 202 201 199 196 195 194 191 189 191 194 196 200 205
222 229 224 216 226 230 225 228 227 219 214 216 223 221 222 234 236 230 229 241 249 255 266 270 263 253 240 125 98 106 199 236 251 259 262 264 265 264 265 264 261 258 251 246 247 254 258 261 261 254 245 240 233 228 227 225 224 226 227 229 232 237 247 266 291 299 298 284 249 216 203 200 199 199 199 198 194 191 191 190 190 193 195 197 201 205
218 227 226 221 223 221 220 225 228 224 215 217 226 228 228 232 244 250 233 240 254 271 289 286 271 260 242 145 123 273 268 262 265 264 263 264 267 269 267 266 266 257 249 251 251 248 247 248 251 249 240 233 231 230 228 227 226 226 226 228 231 235 240 258 290 292 291 295 281 234 210 201 194 194 194 196 198 195 190 188 191 193 195 198 202 206
226 234 229 227 225 217 217 223 229 233 228 221 221 228 233 235 241 252 257 268 285 297 282 275 291 311 247 139 176 268 283 282 278 270 264 259 258 258 252 251 255 246 247 259 258 241 236 238 239 240 236 232 232 232 231 232 227 221 224 229 233 235 238 251 272 281 286 292 290 261 227 202 190 191 190 193 200 199 191 189 191 194 196 199 203 208
227 238 231 228 228 222 220 222 224 232 237 227 218 224 230 234 239 243 252 264 272 278 263 254 262 269 186 152 151 248 285 291 274 260 257 257 253 245 236 234 234 227 238 254 258 249 247 251 246 239 239 236 234 233 232 233 228 219 223 230 235 237 240 247 256 271 280 284 296 289 247 207 193 191 190 194 197 195 192 191 192 194 196 200 203 205
226 241 236 226 227 223 220 225 223 225 235 234 226 230 229 229 237 241 243 246 243 247 253 245 235 186 157 206 357 254 247 266 263 257 249 247 243 228 212 210 212 213 230 247 256 256 246 249 248 244 243 236 230 231 234 238 230 209 218 227 232 232 229 231 241 256 262 261 290 303 277 225 203 192 191 197 195 190 191 191 192 195 197 201 201 199
227 243 242 225 225 221 215 225 229 223 228 231 232 237 231 227 229 229 233 238 237 243 249 244 240 115 101 127 198 241 223 231 274 286 247 223 215 203 190 188 194 198 214 238 254 257 246 242 237 234 234 230 223 220 220 226 219 210 217 222 223 218 211 213 224 236 243 237 246 290 291 240 209 196 193 197 194 189 190 191 192 197 198 198 196 194
221 237 245 226 221 218 211 221 230 226 221 224 232 239 242 246 244 232 230 234 238 247 255 249 247 78 81 106 145 216 219 217 241 254 240 213 179 177 174 165 170 168 174 209 236 247 254 255 249 243 238 234 232 216 195 199 210 215 219 219 215 211 209 209 215 225 234 228 210 233 266 241 217 204 196 196 194 189 190 193 194 198 198 194 192 192
214 219 237 231 216 218 218 216 224 230 222 216 224 233 236 237 240 238 232 230 237 254 276 260 254 74 70 68 71 226 205 201 219 233 251 215 165 180 196 189 182 180 190 205 219 233 247 255 257 262 260 250 253 253 225 213 210 210 214 215 212 210 209 208 212 219 224 216 204 212 229 231 221 212 201 194 192 189 191 195 196 196 194 191 192 194
214 208 227 236 224 223 222 214 221 234 232 221 221 230 237 235 235 238 232 225 224 231 253 255 181 108 148 186 319 277 183 204 228 247 263 229 214 224 222 213 204 194 193 196 202 226 249 255 252 258 269 271 270 271 260 240 226 218 211 206 206 207 206 206 210 216 217 210 204 208 214 217 219 216 204 191 188 191 193 194 194 194 191 189 193 198
221 212 227 240 235 229 226 223 230 234 239 238 230 233 242 240 239 245 249 233 218 225 256 267 137 129 178 228 283 297 189 160 148 159 209 229 239 243 232 226 237 232 190 173 192 234 261 265 266 265 263 268 266 259 255 251 247 240 220 208 209 208 204 207 211 215 216 210 205 205 208 211 214 212 203 193 191 194 195 194 194 193 190 190 195 201
225 222 234 243 242 239 243 250 242 237 249 255 246 254 274 271 256 257 261 251 230 227 246 346 60 135 157 220 283 313 246 221 176 168 207 236 242 238 229 238 279 295 326 330 307 300 284 277 282 278 269 264 258 252 254 250 250 256 245 229 229 224 218 220 222 221 216 213 210 204 204 208 209 207 204 199 196 197 197 195 196 195 192 193 197 203
222 223 230 236 244 242 245 249 239 236 247 264 296 303 318 330 303 291 303 329 263 243 202 130 45 146 154 224 254 257 257 252 235 219 232 250 246 227 228 257 281 298 317 318 313 311 304 299 294 289 284 275 263 256 258 256 255 262 260 246 239 237 236 233 232 229 220 218 215 205 200 206 208 207 205 200 196 198 199 199 198 198 196 196 198 205
227 233 225 234 253 238 240 263 273 269 257 266 303 304 312 336 330 309 321 352 355 293 235 147 130 156 172 211 222 240 253 256 253 242 242 254 252 235 251 268 277 286 292 295 300 301 302 304 302 300 301 296 284 272 266 267 270 265 254 247 242 242 241 234 230 227 221 221 219 207 200 202 206 207 202 198 198 200 200 200 201 201 199 199 201 205
218 231 236 248 265 273 295 289 291 314 290 283 310 311 310 320 314 281 326 1 6 316 305 121 143 163 161 178 225 240 247 262 285 276 254 249 249 249 255 262 269 275 280 285 291 294 297 300 301 302 302 304 304 295 281 272 269 264 258 251 246 244 241 232 226 224 221 222 219 209 202 201 203 204 199 198 201 202 202 202 203 203 202 204 206 208
208 232 248 247 261 280 294 284 257 272 292 297 327 332 325 313 309 340 46 44 22 267 122 123 146 146 139 176 223 235 247 272 296 300 282 258 251 254 257 263 270 276 282 284 288 295 300 303 302 302 304 304 304 302 295 282 269 263 259 255 254 252 244 235 230 225 222 219 213 207 205 203 202 203 201 200 203 205 206 204 203 205 206 207 211 215
218 250 255 246 290 311 295 293 283 253 269 285 330 359 352 338 349 32 53 47 59 143 137 143 152 154 163 189 217 234 250 273 288 299 298 282 264 260 261 263 272 282 285 285 291 299 304 308 310 310 309 306 302 297 294 290 281 269 261 261 267 265 252 239 229 222 219 215 208 205 208 206 205 206 204 202 204 207 207 205 205 208 207 209 216 220
234 249 260 284 315 300 284 294 283 242 241 269 75 65 43 31 50 84 87 70 101 120 146 166 176 182 187 198 220 238 256 278 289 294 292 283 270 268 269 267 267 277 285 291 298 300 302 308 311 313 312 306 298 292 287 285 281 275 272 272 274 270 254 237 223 216 215 211 205 205 208 206 206 208 207 204 206 208 206 203 205 209 208 211 218 222
256 251 265 304 311 282 277 295 278 249 238 174 127 102 66 56 63 86 173 149 149 144 150 176 192 198 199 208 230 251 271 283 290 298 301 297 282 275 280 281 275 286 296 299 302 304 307 310 311 315 315 307 300 295 291 289 283 280 280 275 268 262 246 227 215 214 213 207 204 205 207 207 205 205 207 207 208 210 208 204 206 212 212 213 218 221
290 284 288 303 298 271 264 273 258 237 187 146 125 75 46 47 43 53 128 146 154 151 152 158 164 187 218 224 233 260 279 283 288 303 314 310 297 295 303 302 299 312 311 308 311 312 312 311 312 314 310 304 304 304 301 301 298 294 286 269 258 257 243 222 211 212 209 205 205 205 206 208 204 203 208 210 211 215 214 209 208 210 210 212 218 223
308 286 282 294 283 247 256 287 247 204 168 83 33 29 44 55 55 89 135 161 164 144 137 140 147 184 221 226 234 256 267 279 286 233 240 271 267 287 299 285 294 306 303 306 312 314 314 315 313 308 299 295 304 314 319 316 305 299 291 271 254 250 241 224 212 210 208 205 205 205 206 208 206 209 214 214 216 220 218 210 207 207 209 216 224 229
301 285 271 274 266 251 334 339 229 203 183 72 51 47 66 68 42 302 139 159 172 159 148 161 175 202 226 234 248 259 260 272 264 225 226 246 236 246 268 275 286 289 291 303 310 314 319 319 312 302 293 293 303 319 337 332 307 297 291 281 271 258 247 235 219 209 207 210 209 205 205 208 211 215 217 218 221 221 213 207 208 212 217 223 228 231
266 271 263 255 259 277 35 167 221 213 136 125 107 90 105 102 71 354 68 120 160 178 185 196 206 222 241 253 268 267 247 251 251 232 229 236 233 247 276 285 283 279 287 302 303 306 311 309 308 303 290 293 302 307 329 324 311 311 300 285 299 285 252 238 226 212 204 207 209 208 207 210 215 218 218 221 223 217 211 212 216 220 223 226 228 229
257 255 255 249 252 267 298 258 203 131 117 124 122 90 126 151 160 137 61 71 118 185 202 211 224 237 248 255 264 256 229 229 241 234 233 248 255 258 265 269 273 277 290 294 286 287 292 294 302 299 279 305 304 298 319 318 313 321 308 265 234 224 216 214 213 209 205 202 203 208 211 212 215 218 220 222 219 213 213 217 219 221 225 228 230 230
241 242 246 245 243 247 92 94 117 127 109 94 112 57 55 148 172 163 113 49 36 21 231 235 242 250 257 256 252 245 234 233 240 235 237 255 260 252 248 252 263 273 281 281 266 259 270 283 290 303 321 325 308 304 322 326 319 324 318 289 247 225 212 194 186 193 199 200 198 203 209 212 214 218 219 219 216 212 213 216 218 223 226 227 227 226
241 234 234 239 243 235 170 121 126 140 111 82 130 102 58 44 65 165 128 45 18 11 344 292 266 256 261 256 248 243 238 237 238 237 245 256 251 241 233 232 241 249 260 271 262 244 243 257 273 311 315 297 285 289 295 292 287 298 304 302 295 262 232 221 191 178 181 185 188 195 205 210 212 215 216 216 214 213 214 217 219 223 224 224 224 223
245 234 229 238 252 259 242 164 108 105 124 143 141 116 101 58 36 130 121 35 8 7 355 327 292 256 254 252 251 251 248 248 249 248 254 260 257 249 236 230 235 241 251 267 263 242 226 237 271 298 296 283 278 277 268 252 248 264 274 275 285 290 264 245 227 198 184 180 181 189 197 202 205 210 213 216 219 221 225 227 226 226 226 226 226 224
227 216 229 241 241 248 222 110 90 95 121 143 140 123 119 119 109 130 117 19 17 31 18 353 336 290 271 253 246 249 251 255 258 255 256 258 257 253 247 244 245 245 247 258 258 243 231 243 273 282 281 279 277 273 267 252 235 233 257 260 252 250 246 233 225 216 209 202 195 193 194 196 199 203 207 212 217 220 225 227 226 226 227 222 216 209
198 172 200 218 198 213 177 132 110 105 110 124 137 134 123 106 86 84 64 29 40 62 58 45 37 2 315 271 249 244 244 248 252 253 254 255 255 250 245 243 242 240 239 241 243 241 240 253 268 266 263 265 262 258 253 242 226 220 230 236 222 195 185 187 194 202 208 213 212 204 195 191 191 192 195 198 198 196 198 202 203 206 209 206 201 197
153 132 162 165 114 133 151 129 106 88 88 105 128 129 124 116 103 93 78 54 49 60 59 53 50 43 27 3 313 263 249 247 245 246 249 250 249 245 241 242 242 240 239 237 233 231 235 246 251 242 237 239 238 233 228 222 219 221 219 211 207 204 200 194 186 179 182 193 194 181 172 172 176 180 180 178 176 175 177 181 184 186 189 189 188 190
138 116 101 124 125 122 122 115 98 71 72 87 114 112 111 121 116 105 93 79 68 55 47 45 43 37 31 25 19 354 296 269 252 245 244 243 241 238 237 240 243 242 241 240 236 230 227 231 232 225 219 219 218 214 209 204 204 207 203 196 198 206 210 204 195 185 179 178 174 170 170 172 175 179 177 175 174 172 169 167 170 174 178 180 183 187
116 109 105 121 122 109 95 90 86 80 78 84 98 98 99 108 110 104 99 91 77 54 41 37 37 37 42 44 42 40 30 3 315 275 263 258 254 249 243 241 242 242 240 238 237 233 227 221 215 207 199 197 199 196 192 187 184 183 182 183 187 191 194 197 198 193 187 181 175 172 173 173 172 173 173 172 172 171 168 168 172 175 178 180 182 185
83 96 122 118 110 104 99 94 93 94 93 93 93 92 92 96 95 93 89 77 61 49 40 33 33 40 46 48 47 46 46 38 18 335 300 283 274 270 267 266 261 251 245 240 236 234 230 220 210 201 189 181 184 186 182 175 167 163 166 172 174 175 176 182 190 192 189 183 176 171 170 171 171 171 171 170 170 171 173 176 178 178 179 181 185 187
88 99 108 107 101 95 91 87 87 93 97 97 93 89 86 85 83 79 75 64 54 50 42 34 36 38 39 45 46 40 35 32 20 357 327 304 291 286 285 288 285 274 266 260 255 251 249 240 226 217 206 191 186 190 193 182 163 154 157 167 174 180 179 178 187 191 187 184 180 174 173 175 176 174 170 168 168 171 174 175 177 179 184 195 206 213
83 90 97 99 99 94 90 88 86 85 84 85 87 84 80 78 76 70 64 59 53 49 44 40 41 39 38 44 48 41 33 24 12 0 342 322 310 300 292 285 276 271 270 268 265 264 264 260 253 245 235 217 204 202 206 205 182 162 166 179 190 196 191 181 179 183 185 188 191 190 189 188 186 181 176 174 174 175 176 179 189 202 213 225 233 237
74 84 94 101 106 104 100 99 97 92 87 84 82 82 81 83 82 72 62 57 52 48 47 46 47 47 46 48 49 50 46 36 24 21 6 342 329 310 296 284 266 261 263 263 266 270 271 272 273 272 268 260 241 225 216 208 190 172 179 195 204 208 207 198 190 191 209 230 241 244 250 258 252 227 208 202 200 197 198 206 215 224 232 237 241 244
84 100 104 103 103 102 100 97 93 91 91 86 80 79 77 76 77 73 67 67 64 60 58 54 48 46 45 47 50 52 54 51 44 40 40 35 32 12 283 255 269 285 285 290 311 313 306 305 304 302 301 300 297 291 276 253 232 231 241 247 249 249 249 249 245 239 240 248 255 256 253 253 259 266 266 258 249 239 232 228 227 230 234 237 241 245
78 91 100 101 101 102 103 103 97 94 95 92 84 78 71 62 64 69 69 64 57 54 49 34 34 40 34 30 31 24 23 29 21 6 360 357 347 338 307 258 259 267 267 275 293 301 299 300 300 300 303 305 310 322 329 340 355 350 340 337 326 315 313 306 294 287 281 274 271 266 263 267 275 282 283 279 271 263 254 246 243 242 243 246 250 253
94 109 115 112 110 111 115 129 143 115 99 96 91 85 75 62 55 57 55 48 42 40 31 19 14 16 353 331 323 320 318 323 331 333 332 330 325 320 316 307 295 286 282 282 285 287 288 291 294 299 304 304 303 310 321 333 345 346 343 343 336 326 326 328 326 327 327 318 309 305 304 306 307 306 305 301 292 282 274 268 263 260 258 258 257 258
Height
3096 3097 3097 3097 3097 3098 3099 3100 3100 3100 3099 3098 3098 3098 3098 3098 3097 3099 3099 3098 3100 3102 3104 3106 3106 3106 3106 3106 3106 3107 3107 3107 3107 3108 3110 3111 3106 3103 3105 3108 3110 3112 3112 3113 3114 3115 3115 3114 3114 3115 3116 3118 3119 3119 3118 3117 3116 3114 3113 3112 3112 3113 3114 3115 3118 3120 3122 3125 3127 3128 3130 3132 3134 3136 3136 3137 3139 3141 3142 3143 3145 3145 3146 3149 3151 3151
3095 3095 3095 3095 3096 3097 3098 3099 3099 3098 3098 3099 3099 3099 3098 3097 3096 3097 3098 3097 3098 3100 3102 3104 3105 3105 3105 3105 3105 3105 3105 3105 3105 3106 3107 3109 3107 3103 3101 3104 3108 3109 3110 3110 3110 3112 3113 3113 3112 3112 3114 3116 3117 3117 3117 3116 3114 3113 3112 3111 3111 3111 3112 3114 3116 3119 3123 3126 3127 3128 3130 3132 3133 3135 3136 3136 3137 3139 3141 3142 3143 3144 3146 3149 3150 3150
3094 3093 3093 3094 3095 3096 3096 3097 3098 3097 3097 3098 3099 3100 3098 3098 3098 3098 3099 3099 3098 3099 3101 3103 3104 3103 3103 3103 3103 3103 3104 3103 3103 3104 3105 3106 3107 3106 3101 3101 3104 3106 3107 3108 3108 3109 3110 3111 3110 3111 3112 3114 3115 3115 3115 3114 3113 3113 3112 3111 3110 3110 3112 3113 3115 3119 3123 3125 3125 3126 3129 3131 3132 3133 3135 3136 3136 3137 3140 3142 3142 3143 3145 3147 3148 3149
3091 3089 3089 3091 3093 3094 3095 3095 3096 3096 3096 3097 3098 3099 3098 3098 3098 3097 3097 3098 3097 3098 3100 3102 3102 3101 3101 3101 3101 3101 3101 3102 3102 3102 3103 3103 3105 3106 3102 3099 3100 3102 3103 3104 3106 3107 3108 3108 3109 3109 3110 3112 3114 3114 3114 3113 3113 3112 3112 3111 3110 3110 3112 3112 3114 3118 3121 3122 3123 3125 3128 3130 3130 3132 3134 3135 3136 3137 3139 3141 3141 3142 3143 3145 3146 3148
3088 3086 3087 3090 3091 3092 3093 3094 3095 3096 3095 3096 3097 3097 3097 3097 3098 3097 3096 3097 3097 3096 3098 3101 3100 3099 3099 3099 3098 3099 3099 3099 3100 3100 3101 3101 3102 3104 3103 3100 3097 3099 3101 3101 3102 3105 3106 3106 3107 3106 3105 3107 3110 3112 3113 3113 3113 3113 3112 3111 3110 3110 3111 3111 3114 3117 3118 3119 3122 3125 3128 3129 3130 3131 3134 3135 3136 3137 3139 3140 3141 3142 3143 3145 3146 3147
3087 3086 3088 3090 3089 3090 3092 3093 3094 3095 3095 3095 3095 3096 3096 3097 3097 3096 3096 3096 3095 3094 3096 3098 3096 3094 3096 3095 3095 3096 3096 3095 3096 3097 3098 3099 3100 3101 3103 3102 3098 3096 3098 3100 3100 3103 3104 3104 3104 3104 3104 3107 3109 3111 3114 3113 3113 3112 3111 3111 3110 3110 3111 3111 3115 3118 3118 3119 3123 3125 3127 3129 3130 3132 3134 3134 3135 3137 3138 3139 3140 3141 3143 3144 3146 3147
3085 3086 3088 3089 3088 3089 3091 3092 3093 3094 3094 3093 3093 3094 3095 3096 3096 3096 3097 3097 3094 3093 3095 3096 3094 3091 3091 3092 3092 3092 3092 3091 3092 3093 3095 3097 3099 3100 3101 3102 3101 3096 3094 3096 3098 3100 3102 3102 3102 3103 3105 3108 3112 3115 3114 3112 3112 3112 3111 3111 3110 3110 3111 3112 3115 3118 3118 3120 3123 3125 3127 3128 3129 3132 3134 3134 3135 3136 3138 3140 3140 3141 3142 3144 3145 3146
3083 3084 3086 3087 3088 3089 3089 3090 3091 3092 3092 3091 3091 3092 3093 3093 3094 3094 3095 3096 3094 3094 3095 3095 3095 3092 3090 3090 3091 3091 3090 3090 3091 3092 3093 3094 3097 3099 3097 3097 3100 3099 3094 3092 3094 3096 3098 3099 3100 3103 3106 3108 3112 3114 3112 3110 3111 3112 3112 3112 3111 3112 3112 3112 3115 3117 3116 3119 3123 3125 3127 3127 3129 3130 3132 3133 3134 3136 3138 3139 3140 3141 3142 3143 3144 3145
3082 3082 3084 3086 3087 3088 3088 3088 3089 3090 3090 3090 3091 3091 3091 3091 3092 3092 3094 3094 3095 3095 3092 3092 3094 3090 3086 3088 3090 3090 3089 3089 3090 3089 3090 3090 3092 3092 3091 3091 3095 3098 3095 3092 3092 3091 3091 3095 3100 3102 3105 3107 3109 3109 3109 3109 3109 3110 3111 3111 3112 3113 3112 3112 3115 3118 3117 3118 3122 3124 3126 3127 3128 3129 3130 3132 3134 3135 3137 3138 3139 3140 3141 3143 3144 3145
3080 3081 3082 3084 3085 3086 3086 3087 3088 3088 3089 3089 3090 3090 3089 3090 3092 3093 3093 3093 3094 3092 3088 3089 3092 3088 3084 3085 3088 3088 3087 3087 3087 3086 3087 3089 3089 3089 3090 3092 3095 3097 3096 3092 3091 3087 3087 3094 3100 3102 3103 3105 3105 3106 3107 3107 3107 3108 3109 3110 3111 3111 3111 3111 3115 3119 3120 3121 3122 3124 3126 3127 3128 3129 3129 3131 3133 3135 3137 3138 3139 3140 3141 3142 3143 3144
3079 3080 3081 3082 3083 3084 3085 3086 3086 3087 3088 3088 3089 3090 3090 3090 3092 3093 3093 3093 3093 3089 3085 3087 3090 3088 3086 3085 3086 3087 3086 3085 3086 3086 3087 3088 3090 3090 3091 3093 3096 3098 3095 3091 3089 3088 3090 3095 3098 3100 3102 3103 3103 3103 3104 3104 3104 3105 3107 3108 3109 3109 3110 3111 3114 3118 3122 3123 3122 3124 3126 3127 3128 3129 3130 3131 3133 3135 3137 3138 3138 3139 3141 3142 3143 3144
3078 3079 3080 3080 3081 3082 3084 3084 3084 3086 3087 3088 3088 3089 3090 3089 3091 3091 3091 3092 3090 3086 3084 3086 3087 3086 3085 3085 3086 3085 3083 3083 3085 3086 3087 3088 3090 3091 3091 3094 3095 3095 3093 3089 3089 3090 3093 3095 3096 3098 3099 3099 3100 3100 3101 3101 3101 3102 3104 3105 3106 3107 3109 3110 3113 3117 3121 3122 3122 3123 3125 3126 3128 3129 3130 3132 3133 3135 3136 3137 3138 3140 3141 3142 3142 3143
3076 3077 3078 3079 3080 3081 3082 3082 3083 3084 3085 3086 3087 3088 3089 3088 3088 3087 3086 3087 3085 3083 3083 3085 3084 3084 3084 3085 3085 3083 3081 3083 3085 3086 3087 3088 3089 3089 3091 3093 3093 3092 3090 3088 3088 3090 3092 3093 3093 3095 3096 3096 3096 3097 3097 3097 3097 3099 3100 3102 3103 3106 3109 3111 3113 3115 3118 3121 3122 3123 3124 3125 3127 3129 3130 3131 3133 3134 3135 3136 3138 3140 3140 3141 3142 3142
3074 3075 3075 3077 3078 3079 3080 3080 3080 3080 3082 3084 3085 3086 3086 3086 3085 3083 3083 3084 3083 3082 3083 3084 3084 3082 3082 3084 3084 3082 3083 3084 3085 3086 3087 3087 3088 3088 3089 3089 3090 3091 3087 3084 3087 3090 3091 3092 3090 3090 3092 3092 3091 3092 3093 3093 3094 3096 3098 3100 3103 3106 3108 3110 3112 3114 3116 3118 3120 3122 3124 3124 3126 3128 3129 3131 3132 3133 3134 3135 3137 3139 3140 3141 3141 3142
3071 3072 3072 3074 3075 3076 3077 3078 3078 3078 3080 3082 3083 3084 3083 3083 3082 3081 3081 3083 3083 3083 3084 3084 3083 3081 3080 3083 3083 3083 3084 3085 3084 3084 3085 3086 3086 3086 3087 3086 3087 3088 3083 3081 3085 3089 3091 3091 3088 3087 3089 3089 3089 3089 3090 3090 3091 3094 3097 3100 3102 3105 3108 3109 3110 3112 3113 3114 3115 3119 3123 3124 3125 3126 3128 3130 3131 3132 3132 3134 3136 3138 3139 3140 3141 3141
3070 3070 3071 3072 3073 3073 3074 3076 3077 3077 3077 3078 3081 3082 3080 3080 3080 3079 3079 3081 3082 3083 3083 3082 3082 3080 3080 3082 3083 3082 3083 3083 3084 3083 3083 3084 3084 3084 3084 3084 3084 3085 3081 3079 3082 3086 3087 3087 3085 3085 3088 3090 3091 3090 3089 3087 3088 3093 3098 3099 3101 3104 3107 3108 3110 3111 3112 3111 3111 3115 3119 3121 3123 3124 3126 3129 3130 3132 3133 3134 3135 3137 3139 3140 3140 3141
3069 3069 3070 3071 3071 3072 3073 3075 3076 3076 3075 3075 3077 3078 3078 3079 3079 3079 3079 3080 3082 3082 3080 3080 3081 3080 3081 3083 3083 3082 3082 3082 3083 3083 3082 3083 3082 3082 3083 3083 3083 3083 3081 3078 3080 3083 3083 3082 3081 3083 3086 3089 3090 3088 3085 3085 3090 3096 3098 3099 3100 3103 3105 3107 3109 3110 3109 3108 3109 3111 3114 3118 3120 3122 3125 3127 3128 3131 3132 3133 3135 3136 3138 3139 3140 3140
3068 3068 3068 3069 3070 3071 3072 3073 3074 3075 3074 3075 3076 3076 3077 3078 3078 3078 3078 3078 3080 3080 3078 3077 3079 3081 3083 3084 3084 3083 3083 3082 3082 3083 3083 3081 3080 3080 3082 3084 3083 3081 3079 3078 3079 3081 3082 3080 3080 3081 3083 3085 3086 3084 3084 3088 3094 3097 3097 3097 3099 3101 3103 3105 3107 3107 3106 3106 3107 3108 3111 3114 3117 3120 3123 3125 3126 3129 3131 3132 3134 3135 3137 3138 3139 3140
3067 3066 3066 3067 3068 3070 3072 3072 3072 3073 3074 3075 3075 3075 3076 3076 3075 3076 3077 3077 3079 3078 3076 3075 3076 3080 3084 3084 3083 3084 3083 3083 3082 3082 3082 3080 3079 3080 3081 3083 3082 3079 3078 3078 3078 3079 3080 3080 3081 3081 3081 3083 3084 3085 3088 3091 3093 3094 3094 3095 3097 3098 3100 3102 3103 3103 3103 3104 3105 3106 3108 3110 3114 3117 3120 3123 3124 3127 3129 3130 3132 3134 3135 3137 3138 3139
3066 3066 3065 3066 3067 3068 3070 3070 3070 3070 3072 3074 3075 3075 3075 3074 3073 3074 3075 3076 3076 3076 3075 3074 3075 3081 3084 3083 3083 3084 3083 3082 3082 3082 3081 3080 3081 3081 3080 3081 3080 3078 3077 3077 3077 3078 3078 3079 3079 3079 3079 3080 3082 3084 3088 3088 3089 3090 3091 3092 3093 3095 3096 3098 3099 3100 3101 3102 3103 3105 3106 3108 3110 3113 3117 3120 3122 3124 3127 3128 3131 3133 3134 3136 3137 3138
3065 3065 3065 3065 3066 3067 3067 3068 3069 3069 3070 3072 3073 3073 3073 3073 3073 3073 3073 3074 3074 3074 3075 3075 3077 3081 3083 3082 3083 3083 3082 3082 3082 3082 3082 3082 3082 3081 3079 3079 3078 3077 3076 3076 3076 3077 3078 3077 3077 3077 3077 3077 3078 3080 3083 3084 3084 3086 3088 3089 3090 3091 3093 3095 3096 3097 3098 3100 3101 3103 3105 3106 3107 3110 3114 3117 3120 3123 3125 3127 3129 3131 3133 3135 3136 3136
3062 3064 3065 3065 3065 3065 3065 3067 3068 3068 3069 3070 3071 3071 3072 3071 3072 3071 3070 3071 3072 3073 3075 3075 3077 3081 3082 3081 3082 3082 3082 3082 3082 3082 3083 3082 3081 3080 3079 3078 3077 3077 3076 3076 3076 3077 3077 3077 3077 3076 3075 3075 3077 3078 3080 3081 3082 3083 3084 3085 3086 3088 3090 3093 3094 3095 3095 3097 3099 3101 3102 3104 3105 3107 3111 3116 3118 3120 3123 3125 3128 3130 3131 3133 3134 3135
3061 3063 3064 3064 3064 3064 3065 3066 3067 3067 3067 3069 3070 3071 3071 3071 3071 3070 3069 3069 3070 3071 3073 3074 3076 3081 3081 3080 3082 3083 3083 3083 3082 3081 3082 3081 3081 3080 3079 3078 3077 3077 3077 3077 3077 3077 3077 3077 3077 3076 3076 3075 3077 3078 3079 3080 3080 3082 3083 3084 3085 3087 3090 3092 3093 3093 3092 3093 3096 3098 3099 3101 3103 3105 3108 3113 3116 3118 3121 3124 3126 3128 3130 3131 3133 3134
3061 3063 3064 3064 3064 3064 3065 3066 3066 3067 3067 3068 3068 3068 3069 3068 3068 3068 3068 3068 3068 3070 3073 3075 3077 3081 3081 3081 3083 3084 3084 3084 3082 3081 3080 3080 3080 3080 3079 3078 3078 3077 3076 3076 3077 3077 3077 3077 3077 3077 3076 3076 3077 3078 3079 3080 3080 3082 3084 3086 3088 3089 3090 3091 3091 3090 3089 3090 3093 3094 3096 3098 3100 3103 3106 3109 3113 3116 3119 3122 3124 3126 3128 3130 3131 3133
3062 3063 3064 3064 3064 3065 3065 3065 3066 3067 3067 3067 3066 3066 3066 3065 3065 3066 3067 3067 3068 3071 3073 3074 3077 3081 3081 3081 3082 3083 3084 3084 3082 3080 3080 3079 3078 3078 3078 3077 3077 3076 3076 3076 3076 3076 3077 3077 3077 3077 3076 3077 3077 3077 3078 3079 3080 3083 3086 3087 3088 3088 3088 3088 3088 3088 3087 3088 3090 3091 3093 3096 3099 3101 3103 3106 3110 3114 3117 3120 3122 3124 3127 3128 3130 3131
3062 3063 3063 3063 3064 3065 3066 3066 3066 3068 3068 3066 3065 3065 3066 3066 3066 3067 3067 3067 3069 3072 3073 3074 3076 3079 3080 3080 3081 3082 3083 3083 3081 3080 3079 3078 3078 3077 3077 3077 3076 3076 3076 3076 3076 3076 3076 3076 3076 3076 3076 3076 3076 3076 3077 3078 3080 3082 3084 3085 3085 3085 3085 3086 3086 3085 3085 3086 3088 3089 3090 3093 3097 3100 3102 3105 3108 3112 3115 3118 3120 3123 3125 3127 3128 3130
3061 3063 3063 3064 3064 3065 3067 3068 3068 3069 3069 3067 3065 3065 3066 3067 3068 3069 3069 3070 3073 3075 3075 3074 3076 3078 3079 3080 3081 3081 3082 3081 3081 3079 3078 3077 3077 3076 3076 3076 3076 3076 3076 3076 3076 3076 3076 3076 3076 3075 3075 3075 3075 3076 3076 3077 3079 3080 3081 3081 3082 3082 3083 3083 3083 3083 3083 3085 3087 3089 3090 3092 3095 3098 3101 3104 3107 3110 3113 3116 3119 3121 3123 3125 3127 3129
3061 3062 3063 3063 3064 3065 3067 3068 3068 3069 3069 3068 3067 3067 3067 3067 3067 3068 3070 3073 3075 3076 3076 3076 3078 3079 3080 3081 3081 3080 3080 3080 3079 3078 3077 3076 3076 3075 3075 3076 3075 3076 3076 3076 3076 3075 3075 3075 3075 3075 3075 3075 3075 3075 3075 3076 3077 3078 3078 3078 3078 3079 3080 3081 3081 3081 3082 3085 3087 3089 3090 3091 3093 3097 3100 3103 3106 3108 3111 3114 3117 3119 3121 3123 3126 3127
3060 3061 3062 3063 3064 3064 3065 3066 3066 3067 3069 3069 3068 3068 3068 3067 3066 3068 3070 3072 3073 3074 3076 3076 3078 3079 3079 3079 3079 3078 3078 3078 3077 3077 3076 3076 3076 3075 3075 3076 3076 3076 3076 3076 3076 3075 3075 3075 3075 3075 3075 3074 3074 3074 3074 3074 3075 3075 3076 3076 3076 3077 3077 3078 3078 3079 3081 3084 3086 3087 3088 3090 3092 3095 3099 3102 3104 3106 3109 3112 3115 3117 3119 3122 3124 3125
3059 3061 3061 3062 3064 3064 3064 3065 3065 3066 3068 3069 3068 3069 3069 3068 3068 3070 3072 3073 3072 3073 3075 3075 3076 3077 3078 3078 3077 3077 3077 3076 3076 3076 3075 3075 3075 3075 3075 3076 3076 3076 3076 3076 3075 3075 3075 3075 3075 3074 3074 3074 3073 3073 3073 3073 3073 3073 3074 3074 3074 3074 3074 3075 3077 3078 3080 3083 3085 3086 3087 3089 3091 3094 3097 3100 3102 3104 3107 3110 3112 3114 3117 3120 3122 3123
3059 3061 3061 3062 3064 3063 3064 3065 3065 3065 3068 3068 3067 3068 3070 3069 3070 3071 3072 3073 3073 3074 3075 3076 3076 3076 3077 3077 3077 3076 3076 3075 3075 3075 3075 3075 3075 3075 3075 3076 3076 3076 3076 3076 3075 3075 3075 3075 3074 3074 3074 3073 3073 3073 3072 3072 3072 3072 3072 3073 3073 3073 3073 3074 3076 3078 3080 3082 3084 3084 3085 3087 3089 3093 3096 3099 3101 3102 3104 3108 3111 3112 3115 3118 3120 3120
3059 3060 3061 3062 3063 3063 3063 3064 3064 3065 3067 3067 3066 3067 3069 3070 3071 3072 3073 3074 3073 3074 3074 3074 3074 3075 3075 3075 3076 3076 3075 3075 3075 3075 3075 3075 3075 3075 3075 3076 3076 3076 3076 3076 3075 3075 3075 3074 3074 3074 3073 3073 3073 3072 3072 3072 3071 3071 3071 3072 3072 3072 3072 3073 3076 3077 3079 3081 3083 3083 3084 3085 3088 3091 3093 3097 3100 3101 3103 3107 3109 3110 3112 3115 3116 3117
3058 3059 3060 3061 3062 3062 3062 3062 3063 3064 3066 3068 3068 3068 3071 3072 3072 3071 3072 3074 3074 3074 3073 3073 3073 3074 3074 3074 3075 3075 3075 3075 3075 3075 3075 3075 3075 3075 3076 3076 3076 3076 3076 3075 3075 3075 3074 3074 3074 3073 3073 3072 3072 3072 3072 3072 3071 3071 3071 3071 3071 3072 3072 3073 3075 3077 3078 3080 3082 3084 3085 3085 3086 3088 3091 3095 3098 3099 3101 3104 3105 3107 3110 3112 3113 3115
3058 3059 3060 3061 3061 3061 3062 3062 3063 3063 3066 3069 3070 3070 3072 3073 3072 3071 3072 3073 3073 3073 3073 3073 3073 3073 3073 3074 3074 3074 3074 3075 3075 3075 3075 3075 3075 3076 3076 3076 3075 3075 3075 3075 3075 3074 3074 3074 3073 3073 3073 3072 3072 3072 3072 3072 3071 3071 3070 3070 3071 3071 3072 3072 3074 3076 3078 3080 3081 3083 3085 3085 3086 3088 3091 3094 3096 3097 3099 3101 3103 3106 3108 3110 3112 3115
3057 3058 3059 3060 3061 3060 3061 3062 3063 3065 3067 3068 3069 3070 3071 3072 3072 3071 3072 3072 3072 3073 3073 3073 3073 3073 3073 3073 3074 3074 3074 3074 3074 3074 3075 3075 3075 3076 3076 3075 3075 3075 3075 3074 3074 3074 3074 3073 3073 3072 3072 3072 3072 3072 3072 3072 3072 3071 3071 3071 3070 3070 3071 3071 3071 3073 3075 3078 3080 3082 3083 3085 3086 3088 3090 3092 3094 3095 3097 3100 3103 3105 3107 3108 3110 3112
3057 3057 3058 3059 3060 3060 3060 3061 3063 3066 3068 3068 3069 3069 3070 3071 3071 3072 3072 3072 3073 3072 3072 3073 3073 3073 3073 3073 3073 3073 3073 3073 3074 3074 3074 3075 3075 3075 3075 3075 3075 3075 3074 3074 3074 3074 3073 3073 3073 3072 3072 3072 3072 3073 3072 3072 3072 3071 3071 3071 3071 3071 3071 3071 3069 3069 3072 3075 3077 3080 3082 3083 3085 3087 3089 3091 3092 3093 3096 3098 3100 3102 3104 3106 3108 3110
3056 3057 3058 3058 3059 3060 3061 3062 3064 3067 3068 3068 3069 3070 3069 3070 3071 3071 3071 3072 3072 3072 3072 3072 3072 3072 3072 3072 3072 3072 3072 3073 3073 3074 3074 3075 3075 3074 3075 3075 3075 3074 3074 3074 3074 3074 3074 3074 3073 3073 3072 3072 3072 3073 3072 3072 3072 3071 3071 3071 3071 3071 3071 3071 3070 3070 3071 3073 3075 3077 3080 3082 3084 3086 3087 3089 3091 3093 3094 3095 3097 3100 3101 3103 3105 3107
3055 3056 3057 3058 3058 3059 3060 3062 3064 3066 3067 3068 3068 3069 3069 3070 3070 3071 3071 3072 3072 3071 3071 3071 3071 3071 3071 3071 3071 3072 3072 3072 3073 3073 3074 3074 3074 3074 3074 3074 3074 3074 3074 3074 3074 3074 3074 3074 3074 3073 3073 3073 3073 3073 3073 3073 3072 3072 3072 3071 3071 3071 3071 3072 3072 3072 3073 3073 3074 3076 3078 3080 3082 3084 3086 3088 3090 3092 3092 3093 3095 3097 3098 3100 3101 3103
3055 3056 3057 3058 3058 3059 3059 3060 3062 3065 3066 3067 3068 3068 3069 3070 3070 3071 3071 3072 3072 3071 3071 3070 3070 3071 3070 3071 3071 3071 3071 3072 3073 3073 3074 3074 3074 3074 3074 3074 3074 3074 3074 3074 3075 3074 3074 3074 3074 3074 3074 3074 3074 3074 3073 3073 3073 3072 3072 3072 3071 3071 3071 3071 3072 3073 3074 3074 3074 3074 3076 3078 3080 3082 3084 3086 3088 3089 3091 3092 3093 3094 3096 3098 3100 3101
3054 3055 3056 3057 3058 3059 3060 3061 3063 3065 3066 3067 3067 3068 3069 3070 3070 3071 3071 3072 3072 3071 3071 3070 3070 3070 3070 3070 3070 3071 3071 3072 3072 3073 3073 3074 3074 3074 3074 3074 3073 3073 3073 3074 3074 3074 3074 3074 3074 3074 3074 3074 3074 3074 3074 3073 3073 3072 3072 3072 3072 3071 3071 3071 3072 3072 3073 3073 3073 3073 3074 3076 3078 3080 3082 3083 3085 3087 3088 3090 3091 3093 3095 3097 3098 3100
3054 3054 3056 3057 3057 3058 3060 3061 3064 3065 3066 3066 3067 3068 3069 3070 3070 3071 3071 3072 3072 3071 3071 3070 3070 3070 3070 3069 3069 3070 3070 3071 3072 3072 3073 3073 3074 3074 3074 3073 3073 3072 3072 3072 3072 3073 3074 3074 3074 3074 3074 3074 3074 3074 3074 3074 3073 3073 3072 3072 3072 3072 3072 3072 3072 3072 3072 3072 3073 3073 3074 3075 3076 3078 3080 3082 3084 3086 3087 3089 3091 3092 3094 3095 3097 3099
3054 3055 3056 3056 3057 3059 3060 3062 3064 3066 3066 3067 3068 3068 3069 3070 3071 3071 3072 3072 3072 3071 3071 3070 3070 3070 3070 3069 3069 3069 3070 3070 3071 3071 3072 3073 3073 3073 3073 3073 3073 3073 3072 3071 3071 3072 3072 3073 3073 3073 3073 3073 3074 3074 3074 3073 3073 3073 3073 3073 3073 3073 3073 3073 3072 3072 3072 3072 3073 3073 3074 3075 3076 3077 3079 3081 3083 3084 3086 3088 3090 3091 3093 3094 3096 3098
3054 3055 3056 3056 3058 3059 3061 3063 3065 3066 3067 3067 3068 3068 3069 3069 3070 3071 3071 3072 3072 3072 3071 3071 3070 3070 3070 3070 3070 3070 3070 3070 3070 3071 3071 3072 3072 3072 3072 3073 3073 3073 3073 3072 3072 3071 3071 3071 3072 3072 3072 3072 3072 3073 3073 3073 3073 3073 3073 3073 3073 3073 3073 3073 3073 3073 3073 3073 3073 3074 3074 3075 3076 3077 3079 3080 3082 3083 3085 3087 3089 3090 3092 3094 3095 3097
3055 3055 3056 3057 3058 3060 3062 3064 3066 3067 3067 3067 3068 3068 3069 3069 3070 3071 3071 3072 3072 3072 3072 3071 3071 3070 3070 3070 3070 3070 3070 3070 3071 3071 3072 3072 3072 3072 3072 3072 3073 3073 3073 3073 3072 3072 3071 3071 3071 3071 3071 3071 3072 3072 3072 3072 3072 3072 3072 3073 3073 3073 3074 3074 3075 3074 3074 3074 3073 3074 3075 3076 3077 3078 3079 3080 3081 3083 3084 3085 3087 3089 3091 3092 3094 3095
3056 3056 3056 3057 3059 3060 3062 3065 3067 3067 3068 3069 3069 3069 3070 3070 3071 3071 3072 3072 3072 3072 3072 3072 3071 3071 3070 3070 3070 3070 3070 3071 3071 3072 3072 3072 3073 3073 3073 3073 3073 3073 3073 3073 3073 3072 3072 3071 3071 3071 3071 3071 3071 3072 3072 3072 3071 3072 3073 3073 3073 3073 3074 3074 3075 3075 3075 3075 3074 3074 3075 3076 3076 3078 3079 3079 3081 3082 3083 3085 3086 3088 3090 3091 3093 3094
3059 3059 3058 3059 3061 3063 3064 3067 3068 3068 3069 3070 3070 3070 3071 3071 3072 3072 3072 3073 3073 3073 3072 3072 3071 3071 3071 3070 3071 3071 3071 3072 3072 3072 3073 3073 3073 3073 3073 3073 3073 3073 3073 3073 3073 3073 3073 3072 3072 3072 3072 3071 3071 3071 3072 3072 3072 3072 3073 3073 3073 3073 3074 3074 3075 3075 3075 3075 3076 3076 3076 3076 3077 3077 3078 3078 3079 3081 3082 3084 3086 3087 3089 3090 3091 3093
3062 3062 3061 3061 3064 3065 3067 3069 3070 3070 3070 3070 3070 3071 3072 3072 3072 3073 3073 3073 3073 3073 3073 3072 3072 3072 3072 3072 3072 3072 3072 3072 3073 3073 3073 3073 3073 3073 3073 3073 3073 3073 3073 3073 3073 3073 3073 3073 3073 3073 3072 3072 3071 3071 3071 3072 3072 3072 3073 3073 3074 3074 3074 3074 3075 3075 3076 3076 3076 3077 3077 3078 3078 3078 3078 3079 3080 3081 3082 3084 3085 3086 3088 3089 3091 3092
3063 3064 3064 3065 3066 3067 3069 3071 3072 3071 3072 3072 3072 3072 3072 3073 3073 3074 3074 3074 3074 3073 3073 3073 3073 3073 3073 3073 3073 3073 3073 3073 3073 3073 3074 3074 3074 3074 3074 3074 3074 3074 3074 3074 3073 3073 3073 3073 3073 3073 3073 3072 3072 3071 3071 3071 3071 3072 3072 3073 3074 3074 3074 3075 3075 3075 3076 3076 3077 3077 3078 3078 3079 3079 3080 3080 3081 3082 3083 3084 3085 3086 3087 3088 3090 3091
3065 3065 3066 3067 3068 3069 3071 3072 3073 3073 3073 3073 3073 3073 3073 3073 3073 3074 3074 3074 3074 3074 3074 3074 3074 3074 3074 3074 3074 3074 3074 3074 3074 3074 3074 3074 3074 3074 3074 3074 3074 3074 3074 3074 3074 3074 3074 3073 3073 3073 3073 3073 3072 3072 3071 3071 3071 3071 3072 3072 3073 3073 3074 3074 3074 3075 3075 3076 3076 3077 3077 3078 3079 3079 3080 3081 3081 3082 3083 3084 3085 3086 3087 3087 3088 3089
3068 3068 3069 3070 3071 3072 3074 3074 3074 3074 3074 3075 3075 3075 3074 3074 3074 3074 3074 3074 3074 3074 3074 3074 3074 3074 3074 3074 3074 3074 3074 3074 3074 3074 3074 3074 3074 3074 3074 3074 3074 3074 3074 3074 3074 3074 3074 3073 3073 3073 3073 3073 3072 3072 3072 3072 3071 3071 3071 3072 3072 3072 3072 3073 3073 3073 3074 3075 3075 3076 3077 3077 3078 3078 3079 3080 3081 3081 3082 3083 3084 3084 3085 3086 3087 3088
3070 3070 3071 3072 3072 3074 3075 3075 3075 3075 3075 3076 3077 3077 3077 3077 3076 3075 3075 3075 3075 3075 3075 3074 3074 3074 3074 3074 3074 3074 3074 3074 3074 3074 3074 3074 3074 3074 3073 3073 3073 3073 3073 3073 3073 3073 3073 3073 3073 3073 3073 3072 3072 3072 3072 3072 3072 3072 3072 3072 3072 3072 3072 3072 3072 3072 3072 3073 3073 3074 3075 3076 3076 3077 3078 3078 3079 3080 3080 3081 3082 3083 3084 3084 3085 3086